Time,TemperatureF,DewpointF,PressureIn,WindDirection,WindDirectionDegrees,WindSpeedMPH,WindSpeedGustMPH,Humidity,HourlyPrecipIn,Conditions,Clouds,dailyrainin,SoftwareType,DateUTC
2013-07-24 00:02:00,50.0,47.0,-100.00,WNW,285,1.0,2.0,87,0.00,,,-99.99,,2013-07-24 05:02:00,
2013-07-24 00:11:00,50.0,47.0,-100.00,WNW,285,1.0,2.0,87,0.00,,,-99.99,,2013-07-24 05:11:00,
2013-07-24 00:43:00,49.0,45.0,-100.00,West,280,2.0,3.0,87,0.00,,,-99.99,,2013-07-24 05:43:00,
2013-07-24 00:52:00,49.0,45.0,-100.00,West,280,2.0,3.0,87,0.00,,,-99.99,,2013-07-24 05:52:00,
2013-07-24 01:01:00,49.0,45.0,-100.00,West,280,2.0,3.0,87,0.00,,,-99.99,,2013-07-24 06:01:00,
2013-07-24 01:12:00,49.0,45.0,-100.00,West,280,2.0,3.0,87,0.00,,,-99.99,,2013-07-24 06:12:00,
2013-07-24 01:34:00,48.0,44.0,-100.00,WNW,285,1.0,4.0,87,0.00,,,-99.99,,2013-07-24 06:34:00,
2013-07-24 01:43:00,48.0,44.0,-100.00,WNW,285,1.0,4.0,87,0.00,,,-99.99,,2013-07-24 06:43:00,
2013-07-24 01:53:00,48.0,44.0,-100.00,WNW,285,1.0,4.0,87,0.00,,,-99.99,,2013-07-24 06:53:00,
2013-07-24 02:02:00,48.0,44.0,-100.00,WNW,285,1.0,4.0,87,0.00,,,-99.99,,2013-07-24 07:02:00,
2013-07-24 02:12:00,48.0,44.0,-100.00,WNW,285,1.0,4.0,87,0.00,,,-99.99,,2013-07-24 07:12:00,
2013-07-24 02:32:00,47.0,43.0,-100.00,WNW,290,2.0,3.0,87,0.00,,,-99.99,,2013-07-24 07:32:00,
2013-07-24 02:43:00,47.0,43.0,-100.00,WNW,290,2.0,3.0,87,0.00,,,-99.99,,2013-07-24 07:43:00,
2013-07-24 02:53:00,47.0,43.0,-100.00,WNW,290,2.0,3.0,87,0.00,,,-99.99,,2013-07-24 07:53:00,
2013-07-24 03:02:00,47.0,43.0,-100.00,WNW,290,2.0,3.0,87,0.00,,,-99.99,,2013-07-24 08:02:00,
2013-07-24 03:32:00,47.0,44.0,-100.00,WNW,285,2.0,4.0,87,0.00,,,-99.99,,2013-07-24 08:32:00,
2013-07-24 03:43:00,47.0,44.0,-100.00,WNW,285,2.0,4.0,87,0.00,,,-99.99,,2013-07-24 08:43:00,
2013-07-24 03:52:00,47.0,44.0,-100.00,WNW,285,2.0,4.0,87,0.00,,,-99.99,,2013-07-24 08:52:00,
2013-07-24 04:02:00,47.0,44.0,-100.00,WNW,285,2.0,4.0,87,0.00,,,-99.99,,2013-07-24 09:02:00,
2013-07-24 04:12:00,47.0,44.0,-100.00,WNW,285,2.0,4.0,87,0.00,,,-99.99,,2013-07-24 09:12:00,
2013-07-24 04:32:00,48.0,44.0,-100.00,WNW,295,1.0,3.0,87,0.00,,,-99.99,,2013-07-24 09:32:00,
2013-07-24 04:43:00,48.0,44.0,-100.00,WNW,295,1.0,3.0,87,0.00,,,-99.99,,2013-07-24 09:43:00,
2013-07-24 04:53:00,48.0,44.0,-100.00,WNW,295,1.0,3.0,87,0.00,,,-99.99,,2013-07-24 09:53:00,
2013-07-24 05:02:00,48.0,44.0,-100.00,WNW,295,1.0,3.0,87,0.00,,,-99.99,,2013-07-24 10:02:00,
2013-07-24 05:12:00,48.0,44.0,-100.00,WNW,295,1.0,3.0,87,0.00,,,-99.99,,2013-07-24 10:12:00,
2013-07-24 05:33:00,47.0,43.0,-100.00,WNW,290,2.0,4.0,87,0.00,,,-99.99,,2013-07-24 10:33:00,
2013-07-24 05:43:00,47.0,44.0,-100.00,WNW,290,1.0,3.0,87,0.00,,,-99.99,,2013-07-24 10:43:00,
2013-07-24 05:53:00,47.0,44.0,-100.00,WNW,290,1.0,3.0,87,0.00,,,-99.99,,2013-07-24 10:53:00,
2013-07-24 06:02:00,47.0,44.0,-100.00,WNW,290,1.0,3.0,87,0.00,,,-99.99,,2013-07-24 11:02:00,
2013-07-24 06:12:00,47.0,44.0,-100.00,WNW,290,1.0,3.0,87,0.00,,,-99.99,,2013-07-24 11:12:00,
2013-07-24 06:32:00,49.0,45.0,-100.00,NW,305,1.0,4.0,87,0.00,,,-99.99,,2013-07-24 11:32:00,
2013-07-24 06:44:00,49.0,45.0,-100.00,NW,305,1.0,4.0,87,0.00,,,-99.99,,2013-07-24 11:44:00,
2013-07-24 06:52:00,49.0,45.0,-100.00,NW,305,1.0,4.0,87,0.00,,,-99.99,,2013-07-24 11:52:00,
2013-07-24 07:02:00,49.0,45.0,-100.00,NW,305,1.0,4.0,87,0.00,,,-99.99,,2013-07-24 12:02:00,
2013-07-24 07:12:00,49.0,45.0,-100.00,NW,305,1.0,4.0,87,0.00,,,-99.99,,2013-07-24 12:12:00,
2013-07-24 07:32:00,54.0,50.0,-100.00,WNW,300,1.0,2.0,87,0.00,,,-99.99,,2013-07-24 12:32:00,
2013-07-24 07:42:00,54.0,50.0,-100.00,WNW,300,1.0,2.0,87,0.00,,,-99.99,,2013-07-24 12:42:00,
2013-07-24 07:52:00,54.0,50.0,-100.00,WNW,300,1.0,2.0,87,0.00,,,-99.99,,2013-07-24 12:52:00,
2013-07-24 08:02:00,54.0,50.0,-100.00,WNW,300,1.0,2.0,87,0.00,,,-99.99,,2013-07-24 13:02:00,
2013-07-24 08:12:00,54.0,50.0,-100.00,WNW,300,1.0,2.0,87,0.00,,,-99.99,,2013-07-24 13:12:00,
2013-07-24 08:32:00,58.0,51.0,-100.00,WNW,290,1.0,3.0,77,0.00,,,-99.99,,2013-07-24 13:32:00,
2013-07-24 08:43:00,58.0,51.0,-100.00,WNW,290,1.0,3.0,77,0.00,,,-99.99,,2013-07-24 13:43:00,
2013-07-24 08:53:00,58.0,51.0,-100.00,WNW,290,1.0,3.0,77,0.00,,,-99.99,,2013-07-24 13:53:00,
2013-07-24 09:02:00,58.0,51.0,-100.00,WNW,290,1.0,3.0,77,0.00,,,-99.99,,2013-07-24 14:02:00,
2013-07-24 21:14:00,60.0,51.0,-100.00,WNW,290,1.0,2.0,72,0.00,,,-99.99,,2013-07-25 02:14:00,
2013-07-24 21:43:00,60.0,51.0,-100.00,WNW,290,1.0,2.0,72,0.00,,,-99.99,,2013-07-25 02:43:00,
2013-07-24 21:53:00,60.0,51.0,-100.00,WNW,290,1.0,2.0,72,0.00,,,-99.99,,2013-07-25 02:53:00,
2013-07-24 22:02:00,60.0,51.0,-100.00,WNW,290,1.0,2.0,72,0.00,,,-99.99,,2013-07-25 03:02:00,
2013-07-24 22:45:00,58.0,52.0,-100.00,West,270,0.0,2.0,79,0.00,,,-99.99,,2013-07-25 03:45:00,
2013-07-24 22:52:00,58.0,52.0,-100.00,West,270,0.0,2.0,79,0.00,,,-99.99,,2013-07-25 03:52:00,
2013-07-24 23:02:00,58.0,52.0,-100.00,West,270,0.0,2.0,79,0.00,,,-99.99,,2013-07-25 04:02:00,
2013-07-24 23:12:00,58.0,52.0,-100.00,West,270,0.0,2.0,79,0.00,,,-99.99,,2013-07-25 04:12:00,
2013-07-24 23:33:00,58.0,52.0,-100.00,West,270,0.0,1.0,82,0.00,,,-99.99,,2013-07-25 04:33:00,
2013-07-24 23:43:00,58.0,52.0,-100.00,South,175,0.0,5.0,82,0.00,,,-99.99,,2013-07-25 04:43:00,
2013-07-24 23:53:00,58.0,52.0,-100.00,South,175,0.0,5.0,82,0.00,,,-99.99,,2013-07-25 04:53:00,